Vorticity
0 0 0 1 1 2 2 2 2 2 2 3 4 6 6 7 7 6 4 2 1 0 0 2 5 6 7 5 4 4 4 5 6 6 5 5 5 4 4 5 5 5 4 4 3 4 5 5 5 4 4 3 3 4 4 5 5 6 6 7 8 7 8 8 9 9 9 10 10 11 13 14 13 13 11 8 7 5 4 4 3 3 2 2 2 2 2 2
1 1 0 0 0 1 1 1 2 2 2 2 3 4 5 6 6 6 6 5 3 1 0 -0 1 4 6 7 6 5 4 4 4 5 6 5 5 4 4 5 4 5 4 4 4 4 5 5 5 4 3 3 4 4 4 5 6 6 7 7 7 7 8 8 8 8 9 9 8 9 9 9 8 7 6 5 4 3 3 3 3 3 2 2 3 3 3 3
1 1 1 1 1 1 1 1 2 2 2 3 4 4 4 4 4 5 5 6 6 4 2 1 -0 1 2 5 6 6 5 4 4 4 5 5 5 4 4 4 4 4 5 4 3 3 4 4 5 4 4 4 4 4 5 5 6 7 7 7 7 7 7 7 8 8 8 8 7 7 6 5 5 4 3 4 4 3 3 4 4 5 4 2 2 4 5 5
1 2 2 2 2 2 2 2 3 3 3 4 5 4 4 4 3 4 4 5 7 7 6 4 1 0 0 2 3 6 6 6 5 4 4 4 5 5 4 3 3 4 5 4 3 3 3 3 3 4 5 4 4 4 5 5 6 6 6 7 7 7 8 8 8 8 8 7 7 6 5 5 5 4 3 3 4 3 3 4 3 5 5 4 3 3 4 6
2 2 3 3 3 3 4 4 4 5 5 6 5 4 4 3 3 3 4 4 5 6 7 7 5 2 1 1 1 3 3 5 7 6 5 5 5 5 5 4 3 3 3 4 4 3 3 3 3 4 5 4 4 4 4 5 5 6 7 7 7 7 7 7 6 7 7 7 6 6 6 5 5 5 5 4 4 2 3 4 4 5 6 6 5 4 4 5
3 3 4 4 4 5 5 5 5 6 6 6 5 4 3 3 3 3 3 4 4 4 5 7 8 6 4 2 1 1 1 3 6 7 6 6 5 5 5 5 5 3 3 2 2 3 4 4 3 4 4 3 4 4 4 4 5 6 6 6 6 6 6 6 6 6 6 6 6 6 6 5 5 6 5 6 5 4 4 4 4 4 5 5 4 4 4 4
5 4 5 5 6 6 6 6 5 6 5 4 4 3 3 2 3 3 3 3 3 3 4 5 6 7 8 5 3 1 1 2 3 5 6 6 4 3 3 4 5 5 4 3 2 3 4 4 4 4 4 4 4 4 4 4 5 6 5 5 6 5 6 6 6 6 6 5 5 5 5 5 5 5 5 6 6 5 5 4 3 2 3 4 4 4 4 4
8 7 7 7 8 7 7 7 7 6 5 4 3 3 3 3 3 3 3 3 3 4 4 4 4 5 7 7 6 3 2 2 2 3 6 7 6 4 3 3 4 4 4 4 4 4 4 4 4 5 6 5 4 3 3 4 5 4 4 5 5 6 5 5 5 6 6 6 6 6 5 5 4 4 4 4 4 4 4 3 3 4 5 6 6 6 5 5
8 8 8 8 7 8 8 8 7 6 4 3 3 3 3 3 4 4 4 3 4 4 4 5 5 5 5 6 7 6 4 2 1 2 4 7 8 6 5 4 3 4 4 5 4 4 4 3 3 4 5 4 4 4 4 5 5 4 5 5 5 5 5 5 6 5 5 5 5 5 5 4 3 3 4 4 3 3 4 4 5 7 7 7 7 7 7 7
7 7 7 7 7 8 7 7 6 5 4 3 4 4 5 5 6 5 5 4 4 4 5 5 5 5 5 6 6 7 7 5 1 1 3 5 8 8 6 5 3 3 4 5 5 5 4 3 3 3 4 4 4 4 4 5 5 5 5 4 4 4 4 5 5 4 3 3 3 3 6 5 3 4 4 4 3 4 5 4 5 6 7 7 7 7 7 8
7 7 8 8 8 8 7 7 6 5 5 5 6 6 7 7 6 6 6 6 7 7 7 7 7 7 6 6 7 7 9 11 5 -0 1 3 6 9 8 7 5 3 4 5 5 5 5 5 3 4 5 4 4 4 5 5 4 4 4 4 4 4 4 4 3 3 3 3 3 3 6 5 4 5 5 4 5 6 6 6 7 7 6 7 8 7 8 9
8 8 8 9 9 9 8 8 7 7 7 7 8 8 8 8 7 8 8 9 10 10 10 9 9 10 10 9 10 9 10 14 11 3 0 2 4 7 9 7 6 4 4 5 6 6 6 6 6 6 5 4 5 5 4 4 3 4 3 3 4 4 4 4 4 4 4 4 4 4 6 6 5 6 6 5 4 6 6 7 8 6 6 7 6 6 8 8
9 9 9 9 9 9 9 8 8 8 8 8 8 8 7 7 7 8 9 10 10 11 12 13 12 12 13 13 14 14 12 14 16 9 2 2 3 5 8 8 7 5 4 4 5 6 6 6 6 6 6 6 5 3 3 4 3 3 3 4 4 4 4 4 4 4 4 5 5 5 4 6 7 5 5 6 4 4 6 7 7 6 6 6 5 6 7 7
9 9 9 9 10 10 10 10 10 10 9 9 8 7 6 5 6 6 6 8 9 11 11 14 17 14 14 15 16 16 14 14 18 14 6 3 3 4 7 8 7 6 5 5 6 6 6 7 7 6 6 6 5 4 5 4 3 3 4 5 5 4 4 4 4 4 4 4 4 5 2 3 7 6 6 7 5 5 6 6 6 6 6 5 5 7 6 6
9 10 10 11 11 11 10 10 9 8 7 6 6 5 5 5 5 5 5 6 7 9 10 13 16 15 15 15 15 15 15 17 20 17 10 5 5 5 5 7 7 7 5 5 6 7 7 7 7 7 7 7 6 6 5 4 4 4 5 5 5 4 4 4 5 4 4 5 5 6 4 2 5 6 6 7 6 6 6 5 5 5 4 5 6 7 7 6
11 11 11 10 9 7 7 6 4 4 3 3 4 4 5 5 5 5 5 5 6 7 9 12 12 12 13 12 12 14 15 18 19 17 11 7 6 6 5 6 7 7 6 5 6 7 7 7 7 7 7 7 6 5 5 5 6 6 5 5 6 5 4 4 5 4 4 5 5 6 5 2 4 5 5 6 5 6 6 5 5 5 5 7 8 8 7 7
9 8 7 6 5 5 4 4 3 3 3 4 5 6 6 6 7 7 6 6 6 6 9 10 10 10 11 9 10 11 12 14 15 13 10 8 8 7 7 7 6 7 7 6 7 7 7 7 7 7 7 7 7 6 5 6 6 6 6 6 5 5 5 5 5 5 4 5 5 5 4 2 4 6 4 5 5 6 5 5 6 6 7 8 8 7 7 8
6 5 5 5 5 5 4 4 4 4 5 5 6 6 7 7 8 9 9 8 8 8 9 9 9 10 10 10 10 10 11 11 11 11 11 11 11 10 10 9 7 7 8 7 7 7 7 8 8 8 8 7 6 6 5 6 6 6 6 5 5 4 4 6 6 5 5 4 5 5 5 3 3 4 4 3 4 4 5 6 7 7 8 8 7 7 8 9
6 6 6 6 6 6 5 5 5 5 5 4 4 5 6 6 7 8 8 10 11 10 9 8 8 8 8 9 10 10 11 12 13 14 14 14 14 13 11 9 8 7 8 7 7 7 7 7 8 7 8 7 6 6 6 6 6 6 5 5 5 3 3 5 6 5 5 4 4 4 4 3 2 3 4 4 3 4 6 8 8 8 9 8 8 8 9 9
7 7 6 7 6 5 5 4 5 4 4 5 5 5 6 5 6 8 9 11 12 12 10 8 8 7 7 9 10 10 11 11 13 15 15 15 14 13 12 9 9 8 7 7 7 7 7 7 8 8 8 7 5 5 5 5 5 4 4 4 4 3 2 3 4 4 4 4 3 4 5 4 3 3 4 4 4 6 8 9 9 10 9 9 9 9 9 9
7 6 5 5 4 4 5 4 5 5 5 6 6 7 7 7 8 9 11 12 12 13 13 10 9 8 7 9 10 11 11 11 11 10 10 10 8 8 9 9 8 8 7 6 6 6 8 8 8 7 5 4 4 5 5 5 4 4 4 3 2 3 2 1 2 3 3 4 4 5 6 5 3 5 6 6 8 9 9 10 10 9 9 10 10 11 12 12
5 5 5 5 5 5 5 5 6 6 7 8 10 12 13 14 13 11 13 16 15 15 15 12 11 10 9 11 11 10 11 13 14 12 9 9 7 5 6 6 6 7 6 6 7 8 8 6 4 4 4 5 5 5 4 3 4 4 4 3 1 2 2 1 2 3 3 4 5 5 5 4 4 6 6 7 9 9 9 10 9 9 11 12 13 14 16 16
5 5 5 5 6 6 6 7 8 9 12 15 18 20 21 22 21 19 20 20 17 17 17 15 12 10 10 11 10 8 7 8 10 11 9 8 7 6 6 6 5 6 6 6 6 5 5 5 5 6 6 6 5 4 4 3 4 4 4 4 2 2 2 2 3 4 5 6 6 6 6 5 6 7 7 8 9 8 8 10 10 12 13 13 15 17 18 16
5 6 6 6 7 8 9 9 11 15 17 19 20 20 20 21 23 26 26 23 19 18 18 16 12 11 12 11 10 8 5 3 3 6 8 8 8 7 7 7 6 7 7 6 5 4 5 6 5 5 5 5 5 4 4 3 4 4 4 4 3 3 4 4 6 6 6 6 6 8 8 6 7 8 8 9 9 9 10 12 13 14 14 15 17 17 14 12
5 5 6 7 9 10 11 13 16 18 17 18 18 17 19 22 26 30 30 26 21 18 16 13 11 10 11 11 11 10 6 5 4 4 6 8 9 9 8 8 7 6 5 4 3 3 3 3 2 3 4 5 4 4 4 3 3 4 4 5 4 5 5 6 7 6 6 6 7 9 8 7 7 8 9 10 12 13 14 14 13 14 15 16 16 13 11 10
5 6 8 10 11 11 14 17 16 15 15 17 17 17 23 29 32 33 32 25 18 15 14 12 11 11 12 12 11 10 8 8 6 5 6 7 8 8 7 6 5 3 3 2 2 2 2 3 4 5 5 5 4 5 5 5 6 6 6 6 6 6 7 7 7 7 8 7 8 10 8 7 9 9 11 13 15 15 14 14 15 15 15 14 13 10 9 9
7 8 9 11 11 13 16 16 13 14 14 16 17 18 24 31 33 31 28 23 16 15 14 11 10 10 11 12 10 10 10 11 11 10 9 7 6 6 4 5 5 5 7 7 7 7 6 6 6 6 6 6 6 6 6 7 7 7 6 6 7 7 7 8 8 8 8 7 10 10 7 8 10 13 16 15 14 14 14 14 14 14 13 12 11 10 10 10
8 8 9 10 12 15 15 11 13 13 4 4 15 17 18 26 32 28 22 17 13 13 13 10 9 7 8 11 9 7 5 3 3 2 2 2 2 4 6 8 9 9 10 9 8 7 7 7 7 8 8 8 8 7 7 8 7 7 7 8 8 8 9 8 7 8 7 8 10 9 9 12 12 14 16 14 13 13 13 12 12 13 13 12 11 10 9 9
8 8 9 11 13 14 12 9 15 13 -2 -2 12 15 13 17 21 19 15 12 8 7 9 7 6 6 9 12 10 9 8 8 9 9 9 9 10 11 10 10 9 7 7 7 7 8 7 8 8 9 9 8 8 7 7 7 7 8 9 9 9 8 8 6 7 8 7 8 11 11 13 13 12 13 14 12 12 11 10 11 12 12 11 9 8 8 8 7
9 7 9 13 13 12 11 11 16 15 6 6 13 14 16 22 21 12 10 14 9 5 9 10 11 14 16 18 18 18 18 18 18 17 16 14 12 10 8 7 7 7 8 8 8 8 8 9 8 7 7 7 7 8 9 9 9 9 9 8 7 7 7 6 7 8 8 11 13 13 13 11 12 13 11 9 10 10 10 12 12 10 9 7 6 7 6 5
9 8 10 12 11 11 12 11 12 14 13 14 14 12 13 24 31 20 17 26 22 15 17 16 17 18 15 14 14 13 12 9 8 7 6 5 5 5 5 6 7 7 8 8 8 8 7 7 7 7 8 9 10 10 9 8 7 7 7 7 6 6 7 6 7 9 12 15 14 13 13 12 12 13 11 10 11 12 12 12 10 9 7 6 6 6 6 6
11 8 9 10 11 12 12 9 9 10 10 10 11 11 8 12 19 15 14 21 17 12 13 10 9 8 5 4 4 4 4 3 3 3 4 5 5 6 7 7 7 7 7 7 7 7 7 8 9 10 10 9 8 7 6 6 5 5 6 6 7 8 7 8 11 14 15 15 14 13 12 11 12 12 12 12 12 13 12 10 8 6 6 5 6 7 7 8
11 9 9 10 10 10 9 7 7 7 6 6 6 8 8 8 11 9 8 9 5 4 5 3 4 4 2 3 4 4 4 4 6 7 7 8 8 8 8 8 8 7 7 7 7 8 10 11 10 8 7 6 5 4 5 5 5 5 5 6 9 13 14 16 17 17 15 13 12 11 10 11 11 11 12 13 12 11 9 6 6 6 6 6 7 8 9 10
11 10 10 10 8 7 7 6 7 7 4 6 7 6 7 7 7 7 7 9 8 7 8 5 5 6 6 7 8 8 8 8 9 8 9 9 9 9 8 8 8 7 8 9 9 9 8 7 6 5 5 5 5 6 6 5 5 5 8 11 15 16 17 17 16 14 11 8 8 10 11 11 11 9 10 10 8 7 6 6 8 8 8 9 10 11 11 10
12 12 10 10 8 6 7 5 7 8 6 8 9 8 8 7 6 6 6 8 7 7 9 8 7 8 9 9 9 9 9 9 8 8 8 7 7 8 8 9 10 10 11 10 8 7 4 3 4 5 5 6 6 6 5 6 8 11 14 16 17 15 13 12 11 10 9 8 10 11 10 9 8 8 8 8 6 7 7 9 9 9 10 11 11 11 10 10
16 15 10 9 8 6 7 6 7 8 7 9 9 7 8 7 7 7 6 7 7 6 7 7 8 8 8 7 8 8 7 8 8 8 8 9 9 10 10 11 10 9 8 5 4 4 2 3 5 7 7 6 5 5 7 11 15 17 17 15 13 11 11 10 9 10 10 10 10 10 8 7 6 6 7 7 7 8 9 9 9 9 11 12 11 11 10 9
18 15 10 9 6 5 6 6 8 9 7 8 8 6 7 7 7 7 6 7 7 7 8 8 8 7 7 8 7 7 8 8 9 10 10 11 11 10 9 8 6 4 4 3 3 5 4 3 4 5 5 5 7 11 14 15 15 14 13 13 12 12 12 10 9 10 9 7 7 7 7 6 6 8 8 8 9 9 9 8 9 11 12 11 10 8 5 3
16 11 9 7 4 3 5 6 8 8 6 6 6 7 7 7 7 6 7 7 7 7 8 7 7 7 8 8 8 9 10 10 11 10 9 8 8 6 5 4 4 4 4 4 5 6 5 3 3 6 8 11 14 15 15 14 13 13 13 13 12 11 10 8 8 8 6 6 7 6 7 8 9 10 11 11 10 8 8 9 11 12 10 8 5 3 0 0
11 8 6 6 4 2 3 7 9 7 6 6 5 6 7 6 6 6 6 6 6 7 7 7 8 8 10 11 11 11 9 8 7 5 5 5 4 5 4 4 5 4 4 5 5 6 8 9 11 13 13 14 14 13 13 13 12 12 11 10 8 7 6 6 6 8 8 9 8 8 9 9 9 11 12 11 9 9 12 12 11 8 5 4 2 0 1 1
8 6 4 3 4 2 2 7 9 7 7 7 5 6 6 5 5 6 6 6 7 7 8 9 10 10 10 10 8 7 6 5 4 3 4 4 4 4 4 4 4 5 6 7 9 10 12 15 15 14 14 14 14 12 11 10 9 8 8 7 7 6 6 7 8 10 10 9 9 9 8 8 11 13 11 9 10 12 12 8 6 4 3 2 1 2 3 4
4 5 5 2 2 2 2 6 7 6 6 6 5 6 6 6 6 6 7 8 9 10 10 11 10 8 7 5 4 4 4 4 3 3 4 3 3 4 5 6 8 10 12 12 13 13 13 14 13 12 12 11 10 9 8 7 6 7 8 8 8 8 9 9 9 10 9 8 11 9 6 11 15 12 8 9 11 9 6 4 4 3 2 2 3 4 5 5
4 3 3 1 1 1 2 5 6 5 5 6 5 6 7 7 7 8 10 10 11 11 10 8 5 4 3 3 3 3 3 3 2 4 5 5 8 10 12 14 14 14 14 13 13 13 12 12 10 9 8 7 7 8 8 8 9 10 11 10 10 10 10 9 9 9 8 10 12 9 8 14 14 9 9 10 8 5 4 4 3 2 3 4 5 6 6 8
9 5 1 -0 1 0 3 6 7 6 6 6 7 7 8 9 10 10 10 9 8 7 5 3 2 3 3 2 2 1 3 5 7 10 12 14 16 15 15 14 13 13 12 11 11 10 9 8 8 8 9 11 12 11 10 11 12 12 11 10 10 10 10 10 10 10 9 12 14 11 10 12 9 8 10 7 5 5 4 3 3 3 5 5 6 8 8 8
11 10 7 3 1 1 6 8 7 5 5 6 8 9 10 10 10 9 7 6 5 4 4 3 3 2 1 2 5 7 11 15 16 17 16 15 14 12 12 11 10 10 9 8 8 8 9 10 11 12 13 13 12 10 10 11 12 12 11 11 11 12 11 11 9 10 11 13 15 11 7 7 7 8 8 5 4 5 3 3 4 5 7 8 9 10 8 8
12 11 9 6 4 6 8 6 5 5 7 9 10 10 10 9 7 4 4 4 3 3 2 2 3 5 8 12 15 17 19 18 16 14 12 11 10 10 9 9 8 8 9 10 11 11 13 13 11 11 11 10 9 8 9 10 13 13 11 10 12 12 11 10 10 13 11 9 13 11 5 6 9 7 4 4 4 4 5 7 9 10 12 11 10 8 7 6
9 7 7 6 7 7 6 5 7 9 10 11 9 8 8 7 4 2 2 2 2 5 7 10 14 17 19 20 18 16 15 12 11 10 9 9 9 10 10 10 11 12 12 12 12 11 12 11 10 11 11 10 9 9 11 11 12 11 9 11 11 10 11 12 12 11 7 6 12 13 6 4 7 5 5 7 7 8 10 11 11 11 9 7 6 5 5 4
6 6 6 7 7 6 6 8 9 10 9 8 6 5 5 3 1 3 6 9 13 17 19 20 20 19 16 14 12 10 10 9 9 10 11 11 12 12 12 13 13 12 11 11 10 10 11 11 10 13 14 10 9 11 12 10 10 10 10 11 10 10 12 12 10 8 8 8 11 11 7 6 8 7 8 10 9 9 9 8 8 6 4 5 4 4 5 5
8 7 7 7 7 7 9 10 9 8 6 4 3 3 6 8 12 16 18 20 21 19 17 15 13 11 10 10 10 11 12 12 13 13 13 13 13 13 12 12 11 11 11 11 11 10 11 11 11 14 15 9 8 11 10 9 11 10 10 10 11 12 11 10 11 10 11 11 8 8 9 8 8 7 8 8 8 9 9 7 7 6 5 6 5 5 6 5
7 7 7 8 9 9 9 7 5 4 4 6 10 14 18 19 20 19 17 14 13 11 10 10 11 11 12 13 13 14 14 14 13 13 12 12 11 12 12 11 11 12 11 10 10 9 10 11 9 11 12 7 7 11 9 9 11 9 9 11 11 10 9 10 12 10 10 10 7 6 8 8 8 8 9 10 10 10 9 6 6 5 5 5 4 4 5 6
7 9 9 9 8 6 5 5 7 11 15 18 19 19 17 15 13 11 11 12 12 13 14 14 14 15 14 13 13 12 12 11 11 11 11 11 11 10 9 10 11 10 8 7 8 8 9 9 6 7 10 8 6 8 8 8 9 8 9 10 7 7 9 10 10 8 8 8 7 7 10 10 10 11 10 10 9 7 6 4 4 3 3 3 3 4 7 10
8 8 6 5 5 7 11 15 17 19 18 16 14 13 12 13 14 14 15 16 16 15 15 14 14 13 12 11 11 11 11 10 10 10 10 8 7 5 5 7 8 7 6 6 7 7 7 7 3 3 8 7 3 5 7 6 7 9 10 7 6 8 9 9 9 9 9 9 10 11 12 10 10 9 8 7 5 4 4 3 3 3 3 4 6 9 12 13
6 6 6 10 14 17 19 18 16 15 14 14 15 16 17 17 17 16 16 15 14 13 13 12 11 9 9 8 8 8 8 7 7 8 6 5 6 5 4 6 5 5 5 5 5 5 5 5 2 2 6 6 4 5 7 8 9 9 8 6 6 8 9 9 9 9 10 12 12 10 10 9 9 8 6 4 3 4 3 3 3 4 5 7 10 13 15 15
Height
5828 5828 5829 5829 5830 5831 5831 5831 5832 5832 5833 5833 5833 5834 5834 5835 5835 5835 5835 5836 5836 5837 5837 5837 5837 5837 5836 5836 5836 5836 5836 5836 5836 5835 5835 5835 5835 5835 5835 5834 5834 5834 5834 5833 5833 5832 5832 5831 5831 5830 5829 5828 5828 5827 5826 5825 5824 5824 5823 5822 5821 5821 5820 5819 5818 5817 5815 5814 5814 5813 5812 5811 5810 5809 5809 5808 5807 5807 5806 5805 5804 5803 5802 5801 5799 5798 5796 5795
5827 5827 5828 5829 5829 5830 5830 5831 5831 5831 5832 5832 5832 5832 5833 5833 5834 5834 5834 5835 5835 5836 5836 5836 5836 5836 5836 5835 5835 5835 5835 5835 5835 5834 5834 5834 5834 5834 5833 5833 5833 5832 5832 5832 5831 5831 5830 5830 5829 5828 5828 5827 5826 5825 5824 5823 5822 5822 5821 5820 5819 5818 5818 5817 5816 5815 5814 5813 5812 5811 5810 5809 5808 5807 5807 5806 5805 5804 5803 5802 5801 5800 5799 5798 5796 5794 5793 5791
5826 5827 5827 5828 5828 5829 5829 5830 5830 5830 5831 5831 5831 5831 5832 5832 5833 5833 5833 5834 5834 5834 5835 5835 5835 5835 5835 5834 5834 5834 5834 5834 5833 5833 5833 5832 5832 5832 5832 5832 5831 5831 5831 5830 5830 5829 5829 5828 5827 5827 5826 5825 5824 5823 5822 5822 5821 5820 5819 5819 5818 5817 5816 5815 5814 5813 5812 5811 5810 5809 5808 5807 5806 5805 5804 5803 5802 5801 5800 5799 5798 5797 5796 5795 5793 5791 5789 5787
5825 5826 5826 5827 5827 5828 5828 5829 5829 5830 5830 5830 5830 5831 5831 5831 5832 5832 5832 5833 5833 5833 5833 5834 5834 5834 5834 5833 5833 5833 5833 5833 5832 5832 5831 5831 5831 5830 5830 5830 5830 5830 5829 5829 5828 5828 5827 5826 5825 5824 5824 5823 5822 5822 5821 5820 5820 5819 5818 5817 5816 5815 5814 5813 5812 5811 5810 5809 5807 5806 5805 5804 5803 5802 5801 5800 5799 5798 5797 5796 5795 5794 5792 5791 5790 5787 5785 5783
5824 5825 5825 5826 5827 5827 5827 5828 5828 5829 5829 5829 5830 5830 5830 5830 5830 5831 5831 5831 5831 5832 5832 5832 5832 5832 5832 5832 5832 5831 5831 5831 5831 5830 5830 5830 5829 5829 5829 5828 5828 5828 5828 5827 5827 5826 5825 5824 5824 5823 5822 5822 5821 5820 5820 5819 5818 5817 5816 5815 5814 5813 5812 5811 5810 5809 5807 5806 5805 5804 5803 5802 5801 5799 5798 5797 5796 5795 5795 5793 5792 5790 5789 5788 5786 5784 5782 5780
5823 5824 5824 5825 5825 5826 5826 5827 5827 5827 5828 5828 5829 5829 5829 5829 5829 5829 5829 5829 5830 5830 5830 5830 5831 5831 5831 5830 5830 5830 5830 5830 5829 5829 5829 5828 5828 5827 5827 5826 5826 5826 5826 5825 5825 5824 5824 5823 5822 5822 5821 5820 5820 5819 5818 5818 5817 5816 5815 5813 5812 5811 5810 5809 5807 5806 5805 5804 5803 5802 5801 5800 5798 5797 5796 5794 5793 5792 5791 5790 5789 5787 5786 5784 5783 5781 5779 5777
5823 5823 5824 5824 5825 5825 5825 5826 5826 5826 5827 5827 5827 5827 5827 5827 5827 5827 5827 5827 5828 5828 5828 5828 5828 5829 5829 5828 5828 5828 5828 5828 5827 5827 5827 5826 5826 5826 5825 5824 5824 5824 5824 5823 5823 5822 5822 5821 5821 5820 5819 5819 5818 5817 5817 5816 5815 5814 5813 5811 5810 5809 5808 5807 5805 5804 5803 5802 5800 5799 5798 5797 5795 5794 5792 5791 5790 5789 5788 5787 5785 5783 5782 5780 5779 5777 5775 5773
5822 5822 5823 5823 5824 5824 5824 5825 5825 5825 5826 5826 5826 5826 5826 5826 5826 5826 5826 5825 5825 5825 5826 5826 5826 5826 5826 5826 5826 5826 5826 5826 5825 5825 5824 5824 5824 5824 5823 5823 5822 5822 5821 5821 5821 5820 5820 5819 5818 5818 5817 5817 5816 5815 5815 5814 5813 5812 5811 5809 5808 5807 5806 5804 5803 5802 5801 5799 5798 5796 5795 5793 5792 5791 5789 5787 5786 5785 5784 5782 5780 5779 5777 5775 5774 5772 5770 5769
5821 5821 5822 5822 5823 5823 5823 5824 5824 5824 5824 5825 5825 5825 5825 5825 5824 5824 5824 5823 5823 5823 5823 5823 5823 5823 5823 5823 5823 5823 5823 5823 5823 5823 5822 5822 5822 5821 5821 5821 5820 5819 5819 5819 5819 5818 5818 5817 5816 5816 5815 5815 5814 5813 5812 5812 5810 5809 5808 5807 5806 5805 5803 5802 5801 5799 5798 5797 5795 5793 5791 5790 5789 5787 5786 5784 5782 5781 5780 5778 5776 5774 5772 5771 5769 5767 5766 5764
5820 5820 5821 5821 5822 5822 5822 5823 5823 5823 5823 5823 5823 5823 5823 5823 5822 5822 5821 5821 5820 5820 5820 5820 5820 5820 5820 5821 5820 5820 5820 5820 5821 5820 5820 5820 5819 5819 5819 5818 5818 5817 5817 5817 5816 5816 5816 5815 5814 5814 5813 5812 5812 5811 5810 5809 5808 5807 5806 5805 5804 5802 5801 5800 5798 5797 5795 5794 5793 5791 5788 5786 5785 5783 5781 5780 5778 5777 5776 5774 5772 5770 5768 5766 5765 5763 5762 5760
5818 5819 5819 5820 5820 5821 5821 5821 5821 5821 5822 5822 5822 5822 5821 5821 5820 5820 5819 5819 5818 5817 5817 5817 5817 5817 5817 5817 5818 5817 5818 5818 5818 5818 5817 5817 5817 5817 5816 5816 5816 5815 5815 5815 5814 5814 5813 5813 5812 5811 5811 5810 5809 5808 5807 5807 5806 5805 5804 5802 5801 5800 5798 5797 5795 5794 5792 5791 5789 5787 5785 5783 5781 5780 5778 5776 5774 5773 5772 5771 5769 5766 5763 5762 5760 5759 5757 5755
5817 5818 5818 5819 5819 5819 5819 5820 5820 5820 5820 5820 5820 5820 5819 5819 5818 5817 5817 5816 5816 5815 5814 5813 5813 5813 5813 5813 5814 5814 5814 5814 5814 5814 5815 5815 5814 5814 5814 5814 5813 5813 5813 5813 5812 5812 5811 5810 5810 5809 5808 5808 5807 5806 5805 5804 5803 5802 5801 5800 5799 5797 5796 5794 5792 5791 5789 5787 5786 5784 5782 5780 5779 5777 5775 5773 5771 5770 5769 5767 5765 5762 5759 5757 5755 5754 5752 5750
5816 5816 5817 5817 5818 5818 5818 5818 5818 5818 5818 5818 5818 5817 5817 5816 5815 5815 5814 5814 5813 5812 5811 5810 5810 5810 5810 5810 5810 5811 5811 5811 5811 5811 5811 5812 5812 5812 5811 5811 5811 5811 5810 5810 5810 5809 5809 5808 5807 5807 5806 5805 5804 5803 5802 5801 5800 5800 5799 5798 5796 5795 5793 5792 5790 5788 5786 5785 5783 5781 5779 5777 5775 5773 5771 5769 5767 5766 5765 5763 5760 5757 5755 5752 5750 5749 5746 5743
5815 5815 5816 5816 5816 5816 5816 5816 5816 5816 5816 5816 5815 5815 5814 5813 5812 5812 5811 5810 5810 5809 5808 5808 5807 5807 5806 5807 5807 5807 5807 5807 5807 5808 5808 5809 5809 5809 5809 5808 5808 5808 5808 5808 5807 5807 5806 5806 5805 5804 5803 5802 5801 5801 5800 5798 5798 5797 5796 5795 5793 5792 5790 5789 5787 5785 5783 5782 5780 5778 5776 5774 5771 5769 5767 5765 5763 5762 5761 5758 5755 5752 5750 5748 5745 5743 5741 5737
5814 5814 5814 5815 5815 5815 5815 5815 5814 5814 5814 5814 5813 5813 5812 5811 5810 5809 5808 5807 5806 5805 5805 5805 5804 5804 5804 5804 5804 5804 5804 5804 5804 5805 5805 5806 5806 5806 5806 5806 5806 5806 5805 5805 5805 5804 5804 5803 5802 5801 5801 5800 5799 5798 5797 5795 5794 5793 5792 5791 5790 5788 5787 5785 5784 5782 5780 5778 5777 5774 5773 5770 5767 5765 5763 5760 5758 5757 5755 5753 5750 5747 5745 5743 5740 5737 5734 5730
5813 5813 5814 5814 5814 5814 5814 5813 5813 5813 5812 5812 5811 5810 5809 5808 5807 5806 5805 5805 5804 5803 5802 5802 5802 5801 5801 5801 5801 5801 5801 5801 5801 5802 5803 5803 5803 5803 5803 5803 5803 5803 5803 5802 5802 5802 5801 5800 5799 5799 5798 5797 5796 5795 5794 5792 5791 5790 5789 5787 5786 5785 5783 5782 5780 5778 5776 5774 5773 5770 5768 5766 5762 5761 5759 5756 5754 5752 5750 5748 5745 5742 5740 5737 5733 5730 5727 5724
5813 5813 5813 5813 5813 5813 5812 5812 5812 5811 5811 5810 5809 5808 5807 5806 5805 5804 5803 5802 5802 5801 5800 5800 5799 5799 5799 5799 5799 5799 5799 5799 5799 5799 5800 5800 5800 5800 5801 5801 5800 5800 5800 5800 5799 5799 5798 5798 5797 5796 5795 5794 5793 5792 5790 5789 5788 5787 5785 5784 5783 5781 5780 5779 5776 5774 5772 5770 5768 5766 5764 5761 5757 5756 5754 5751 5748 5747 5745 5743 5740 5736 5734 5731 5727 5724 5720 5717
5812 5812 5812 5812 5812 5811 5811 5811 5810 5809 5808 5807 5806 5805 5804 5803 5802 5801 5800 5799 5799 5798 5798 5797 5797 5797 5797 5797 5797 5797 5797 5797 5797 5797 5797 5797 5798 5798 5798 5798 5798 5798 5798 5797 5797 5797 5796 5795 5794 5793 5793 5792 5790 5789 5787 5786 5785 5784 5782 5781 5779 5778 5777 5774 5772 5771 5768 5766 5764 5761 5759 5756 5752 5750 5749 5746 5743 5741 5740 5737 5734 5731 5728 5724 5721 5717 5714 5711
5812 5811 5811 5811 5810 5810 5810 5809 5808 5807 5806 5805 5803 5802 5801 5800 5799 5798 5797 5796 5796 5795 5795 5795 5795 5795 5795 5795 5795 5795 5795 5794 5794 5794 5795 5795 5795 5795 5795 5795 5795 5795 5795 5795 5794 5794 5794 5793 5792 5791 5790 5788 5787 5786 5784 5783 5782 5781 5779 5777 5775 5774 5773 5770 5768 5767 5764 5762 5759 5756 5754 5751 5748 5745 5742 5740 5738 5736 5734 5731 5728 5725 5722 5718 5715 5711 5708 5704
5810 5810 5810 5809 5809 5809 5808 5807 5806 5805 5803 5802 5800 5799 5797 5796 5795 5794 5793 5793 5792 5792 5792 5792 5792 5792 5792 5793 5793 5793 5792 5792 5792 5792 5792 5792 5792 5793 5793 5793 5793 5793 5793 5792 5792 5791 5791 5790 5789 5788 5786 5785 5783 5782 5781 5780 5778 5777 5775 5773 5772 5770 5769 5766 5764 5762 5760 5757 5755 5752 5749 5746 5744 5741 5736 5734 5733 5731 5728 5724 5721 5718 5715 5712 5708 5705 5702 5698
5809 5809 5809 5808 5808 5807 5806 5805 5804 5802 5801 5799 5797 5796 5794 5792 5791 5790 5790 5789 5788 5789 5789 5789 5789 5790 5790 5790 5790 5790 5790 5790 5790 5790 5790 5790 5790 5791 5791 5791 5791 5791 5790 5790 5789 5789 5788 5788 5786 5785 5783 5782 5780 5779 5778 5776 5775 5773 5771 5770 5768 5766 5764 5762 5760 5757 5755 5753 5750 5747 5744 5740 5739 5737 5731 5727 5726 5724 5721 5718 5715 5711 5708 5705 5702 5699 5695 5692
5808 5808 5807 5807 5806 5805 5804 5803 5801 5800 5798 5796 5794 5792 5790 5788 5787 5786 5786 5786 5785 5785 5786 5786 5786 5787 5788 5788 5788 5788 5788 5788 5788 5789 5788 5788 5789 5789 5789 5789 5789 5788 5788 5787 5787 5786 5786 5785 5783 5782 5780 5778 5777 5776 5774 5772 5771 5769 5767 5766 5764 5761 5759 5758 5755 5752 5750 5747 5744 5741 5738 5735 5734 5732 5726 5722 5720 5717 5715 5712 5708 5705 5701 5698 5695 5692 5688 5685
5807 5807 5806 5805 5804 5803 5802 5800 5799 5797 5795 5793 5790 5788 5786 5785 5783 5782 5783 5783 5781 5781 5783 5783 5784 5785 5785 5786 5786 5786 5787 5786 5786 5787 5787 5787 5787 5787 5787 5787 5786 5786 5786 5785 5784 5784 5783 5781 5780 5779 5777 5776 5774 5772 5771 5769 5767 5765 5763 5761 5759 5757 5755 5753 5750 5747 5745 5742 5739 5735 5731 5729 5728 5725 5721 5717 5714 5711 5708 5705 5702 5698 5695 5692 5688 5685 5681 5678
5806 5805 5805 5804 5802 5801 5800 5798 5796 5794 5792 5790 5788 5786 5783 5781 5780 5778 5779 5779 5778 5778 5780 5781 5782 5782 5783 5783 5784 5784 5785 5785 5785 5785 5785 5785 5785 5785 5785 5784 5784 5784 5783 5782 5782 5781 5780 5778 5777 5776 5774 5772 5770 5769 5767 5765 5763 5761 5759 5757 5755 5752 5750 5747 5745 5743 5740 5737 5733 5729 5725 5723 5721 5718 5715 5711 5707 5704 5701 5698 5695 5692 5689 5686 5682 5679 5675 5672
5805 5804 5803 5802 5800 5799 5797 5796 5794 5792 5790 5788 5785 5783 5780 5778 5776 5775 5775 5776 5775 5776 5777 5779 5780 5780 5781 5782 5782 5782 5783 5783 5783 5783 5783 5783 5783 5782 5782 5782 5781 5781 5780 5779 5779 5778 5777 5775 5774 5772 5771 5769 5766 5765 5763 5761 5759 5757 5755 5752 5750 5748 5745 5742 5740 5737 5735 5732 5729 5724 5719 5716 5715 5712 5708 5704 5700 5697 5694 5691 5688 5685 5683 5680 5676 5673 5670 5667
5804 5803 5801 5800 5799 5797 5795 5794 5792 5790 5788 5786 5783 5781 5778 5775 5774 5773 5773 5773 5774 5775 5776 5777 5778 5779 5779 5780 5780 5780 5781 5781 5781 5781 5781 5781 5781 5780 5780 5779 5779 5778 5777 5776 5775 5774 5773 5772 5770 5769 5767 5765 5762 5761 5759 5757 5755 5753 5750 5748 5745 5743 5740 5737 5734 5731 5729 5726 5724 5719 5713 5709 5708 5706 5701 5697 5694 5690 5687 5684 5682 5679 5677 5674 5670 5667 5664 5661
5802 5801 5800 5799 5797 5795 5793 5792 5790 5788 5787 5785 5782 5779 5777 5774 5772 5772 5772 5772 5773 5774 5775 5776 5777 5777 5778 5779 5779 5779 5779 5779 5779 5779 5779 5779 5778 5778 5778 5777 5776 5775 5774 5773 5772 5771 5770 5768 5766 5765 5762 5761 5759 5757 5755 5753 5750 5748 5745 5743 5740 5738 5735 5732 5729 5726 5723 5721 5718 5713 5708 5704 5701 5699 5696 5692 5688 5684 5681 5678 5676 5673 5671 5668 5665 5661 5658 5655
5801 5800 5798 5797 5795 5794 5792 5791 5789 5788 5786 5784 5781 5779 5776 5774 5773 5772 5772 5773 5774 5774 5775 5775 5776 5776 5777 5777 5777 5777 5777 5777 5777 5777 5777 5777 5776 5776 5775 5774 5773 5772 5771 5770 5769 5768 5766 5765 5763 5761 5759 5757 5755 5753 5750 5748 5746 5743 5741 5738 5735 5733 5730 5727 5724 5721 5717 5715 5712 5707 5703 5698 5695 5693 5690 5687 5683 5680 5676 5673 5671 5668 5665 5662 5659 5655 5652 5649
5800 5798 5797 5795 5794 5793 5791 5790 5788 5787 5785 5783 5781 5778 5777 5775 5774 5774 5774 5774 5774 5774 5775 5775 5775 5776 5776 5776 5776 5776 5776 5776 5776 5775 5775 5775 5774 5773 5773 5772 5771 5770 5768 5767 5766 5764 5763 5761 5760 5757 5755 5753 5751 5748 5746 5744 5741 5738 5736 5733 5730 5727 5725 5721 5718 5715 5711 5708 5705 5701 5697 5693 5690 5688 5685 5681 5678 5675 5671 5668 5666 5663 5660 5656 5653 5650 5647 5644
5798 5797 5796 5795 5793 5792 5791 5789 5787 5786 5784 5782 5781 5778 5777 5776 5775 5775 5775 5775 5775 5775 5775 5775 5775 5775 5775 5775 5774 5774 5774 5774 5774 5774 5773 5773 5772 5771 5770 5769 5768 5767 5766 5764 5763 5761 5760 5758 5756 5753 5751 5748 5746 5744 5741 5739 5736 5734 5731 5728 5725 5722 5719 5716 5713 5709 5705 5702 5699 5694 5691 5687 5684 5683 5680 5675 5673 5670 5667 5664 5661 5658 5654 5651 5648 5645 5642 5639
5797 5796 5795 5794 5793 5792 5790 5789 5787 5786 5784 5783 5781 5779 5777 5776 5776 5775 5775 5775 5775 5775 5775 5775 5775 5774 5774 5774 5773 5773 5773 5773 5772 5772 5771 5771 5770 5769 5768 5767 5766 5764 5763 5761 5760 5758 5756 5754 5752 5749 5747 5744 5742 5740 5737 5734 5732 5729 5726 5722 5719 5716 5713 5710 5707 5703 5699 5696 5692 5688 5685 5682 5679 5677 5675 5670 5667 5665 5661 5658 5655 5652 5649 5646 5643 5640 5637 5634
5797 5796 5795 5794 5793 5792 5790 5789 5788 5787 5785 5783 5782 5780 5779 5778 5777 5777 5776 5775 5775 5775 5775 5775 5774 5774 5774 5773 5773 5772 5772 5771 5771 5770 5769 5768 5767 5766 5765 5764 5763 5761 5760 5758 5756 5755 5752 5750 5748 5746 5743 5741 5738 5735 5732 5730 5727 5724 5721 5717 5713 5710 5706 5704 5701 5697 5694 5690 5687 5683 5679 5676 5674 5671 5668 5665 5661 5658 5655 5652 5649 5646 5643 5640 5638 5634 5631 5628
5796 5795 5794 5794 5793 5791 5790 5789 5788 5787 5786 5784 5783 5782 5780 5780 5779 5778 5777 5777 5776 5775 5775 5775 5774 5774 5773 5772 5772 5771 5770 5770 5769 5768 5767 5766 5765 5764 5762 5761 5760 5758 5756 5755 5754 5752 5750 5747 5745 5742 5740 5737 5734 5731 5728 5725 5722 5719 5715 5711 5708 5703 5699 5697 5695 5691 5688 5684 5681 5677 5673 5670 5668 5665 5663 5660 5656 5653 5649 5646 5643 5640 5637 5634 5632 5628 5625 5622
5795 5794 5794 5793 5792 5791 5791 5790 5789 5788 5786 5785 5784 5782 5781 5780 5780 5779 5778 5777 5776 5775 5775 5774 5774 5773 5772 5771 5770 5770 5769 5768 5767 5766 5765 5764 5762 5761 5760 5758 5757 5755 5753 5751 5750 5748 5747 5744 5742 5739 5736 5733 5730 5726 5723 5720 5717 5713 5710 5706 5703 5699 5694 5691 5689 5685 5682 5679 5676 5672 5669 5665 5663 5660 5658 5655 5652 5648 5644 5641 5637 5634 5632 5629 5626 5622 5619 5616
5795 5794 5794 5793 5792 5792 5791 5790 5789 5788 5787 5785 5784 5783 5782 5781 5780 5779 5778 5777 5776 5775 5774 5774 5773 5772 5771 5770 5769 5768 5767 5766 5765 5764 5763 5761 5760 5758 5757 5755 5753 5752 5750 5748 5746 5744 5742 5740 5737 5735 5732 5728 5725 5721 5718 5714 5711 5708 5704 5701 5697 5694 5690 5686 5683 5680 5676 5673 5671 5668 5664 5661 5658 5655 5653 5650 5646 5643 5639 5635 5632 5629 5626 5622 5619 5616 5612 5608
5794 5794 5793 5793 5792 5792 5791 5790 5789 5788 5787 5785 5784 5783 5782 5781 5780 5779 5777 5777 5776 5775 5774 5773 5772 5771 5770 5769 5768 5767 5765 5764 5763 5762 5760 5759 5757 5756 5754 5752 5750 5748 5746 5744 5742 5740 5738 5736 5733 5730 5727 5723 5720 5716 5713 5709 5705 5702 5699 5695 5692 5689 5685 5681 5678 5675 5671 5668 5665 5663 5660 5656 5653 5650 5648 5644 5640 5637 5633 5629 5626 5623 5619 5616 5612 5609 5605 5601
5794 5794 5793 5793 5792 5792 5791 5790 5789 5788 5786 5785 5784 5783 5781 5780 5779 5778 5777 5776 5775 5774 5773 5772 5771 5770 5769 5767 5766 5765 5764 5762 5761 5760 5758 5757 5755 5753 5751 5749 5747 5745 5743 5740 5738 5735 5733 5732 5730 5726 5722 5719 5715 5712 5708 5704 5701 5697 5694 5691 5687 5684 5680 5677 5673 5670 5667 5663 5660 5658 5655 5652 5648 5645 5642 5639 5634 5630 5626 5623 5620 5616 5613 5609 5605 5602 5598 5594
5794 5794 5793 5793 5793 5792 5791 5790 5789 5788 5786 5785 5784 5783 5781 5780 5779 5778 5777 5776 5775 5774 5773 5771 5770 5769 5768 5766 5765 5763 5762 5760 5759 5758 5756 5754 5753 5751 5749 5746 5744 5742 5740 5737 5734 5731 5728 5726 5725 5722 5718 5714 5710 5707 5704 5700 5696 5693 5690 5687 5683 5680 5676 5673 5669 5665 5662 5658 5654 5653 5650 5646 5643 5640 5636 5632 5628 5624 5620 5617 5614 5610 5607 5603 5599 5595 5591 5587
5794 5794 5794 5793 5793 5792 5791 5790 5789 5788 5786 5785 5784 5782 5781 5780 5779 5778 5776 5775 5774 5773 5772 5770 5769 5767 5766 5765 5763 5762 5760 5758 5757 5755 5754 5752 5750 5748 5745 5743 5741 5738 5736 5733 5730 5727 5723 5720 5719 5716 5712 5708 5705 5702 5699 5696 5692 5689 5686 5683 5680 5676 5672 5669 5665 5661 5657 5653 5649 5647 5644 5640 5637 5634 5630 5625 5622 5619 5615 5612 5608 5605 5601 5597 5593 5589 5584 5579
5794 5794 5794 5794 5793 5792 5791 5790 5789 5787 5786 5785 5783 5782 5781 5779 5778 5777 5776 5774 5773 5772 5770 5769 5767 5766 5764 5763 5762 5760 5758 5756 5755 5753 5751 5749 5747 5745 5742 5740 5737 5734 5731 5729 5726 5722 5719 5716 5714 5712 5708 5704 5701 5698 5695 5691 5688 5686 5683 5679 5676 5672 5668 5665 5661 5658 5653 5649 5644 5641 5638 5635 5633 5629 5624 5619 5616 5613 5610 5606 5602 5598 5594 5590 5586 5581 5576 5571
5794 5794 5794 5793 5793 5792 5791 5790 5788 5787 5786 5784 5783 5782 5780 5779 5777 5776 5775 5773 5772 5770 5769 5767 5766 5765 5763 5761 5760 5758 5756 5754 5752 5750 5748 5745 5743 5741 5738 5736 5733 5730 5727 5725 5722 5718 5715 5712 5710 5708 5705 5701 5698 5695 5691 5688 5685 5682 5679 5675 5671 5667 5664 5659 5656 5653 5648 5644 5640 5635 5631 5630 5628 5623 5618 5615 5611 5608 5604 5600 5595 5591 5587 5582 5578 5573 5568 5563
5794 5794 5794 5793 5792 5791 5790 5789 5788 5786 5785 5784 5782 5781 5779 5778 5776 5775 5773 5772 5770 5769 5767 5766 5764 5763 5761 5759 5758 5756 5754 5751 5749 5747 5744 5742 5740 5737 5735 5732 5729 5727 5724 5721 5718 5715 5712 5709 5707 5704 5701 5698 5694 5691 5687 5684 5681 5678 5675 5671 5666 5663 5659 5654 5649 5647 5642 5638 5635 5630 5625 5624 5622 5617 5613 5610 5606 5602 5598 5593 5589 5584 5580 5575 5570 5565 5560 5555
5794 5794 5793 5793 5792 5791 5790 5789 5787 5786 5784 5783 5781 5780 5778 5777 5775 5774 5772 5770 5769 5767 5766 5764 5762 5761 5759 5757 5755 5753 5751 5749 5746 5744 5741 5739 5736 5734 5731 5728 5726 5723 5720 5717 5714 5711 5708 5705 5703 5700 5699 5696 5692 5687 5684 5681 5678 5675 5670 5666 5662 5658 5654 5650 5645 5641 5638 5634 5630 5626 5621 5619 5616 5613 5609 5605 5601 5596 5592 5587 5582 5577 5573 5568 5563 5557 5552 5547
5793 5793 5793 5792 5791 5790 5789 5788 5786 5785 5784 5782 5781 5779 5777 5776 5774 5773 5771 5769 5768 5766 5764 5762 5761 5759 5756 5754 5752 5750 5748 5746 5743 5741 5738 5735 5733 5730 5728 5725 5723 5720 5717 5714 5711 5708 5705 5702 5698 5695 5693 5691 5688 5684 5680 5678 5675 5671 5666 5662 5658 5654 5650 5646 5642 5637 5633 5629 5626 5621 5617 5613 5610 5607 5603 5599 5595 5590 5585 5580 5576 5570 5566 5561 5556 5550 5544 5539
5793 5793 5792 5792 5791 5790 5789 5787 5786 5784 5783 5781 5780 5778 5776 5775 5773 5771 5770 5768 5766 5764 5763 5761 5758 5756 5754 5751 5749 5747 5745 5742 5740 5737 5735 5732 5730 5728 5725 5722 5719 5716 5713 5710 5708 5705 5702 5699 5694 5690 5687 5684 5680 5677 5674 5672 5669 5666 5661 5657 5653 5650 5645 5641 5637 5632 5628 5625 5622 5617 5612 5608 5605 5601 5597 5592 5588 5583 5578 5574 5569 5563 5558 5553 5548 5543 5537 5532
5793 5793 5792 5791 5790 5789 5788 5786 5785 5783 5782 5780 5778 5777 5775 5774 5772 5770 5768 5766 5765 5763 5761 5758 5756 5754 5752 5749 5747 5744 5742 5740 5737 5735 5732 5730 5727 5725 5722 5719 5716 5713 5710 5707 5704 5702 5699 5696 5692 5689 5685 5680 5676 5672 5669 5666 5663 5660 5656 5652 5648 5644 5640 5636 5631 5628 5623 5620 5618 5614 5608 5604 5600 5595 5590 5586 5581 5576 5572 5567 5562 5557 5551 5546 5541 5535 5529 5524
5793 5792 5792 5791 5789 5788 5787 5785 5784 5782 5781 5779 5777 5776 5774 5772 5771 5769 5767 5765 5763 5760 5758 5756 5754 5752 5750 5747 5745 5743 5740 5738 5735 5733 5730 5728 5725 5722 5719 5717 5714 5711 5707 5704 5701 5698 5696 5693 5690 5687 5684 5678 5673 5670 5667 5663 5659 5656 5652 5648 5644 5640 5636 5632 5627 5624 5620 5615 5613 5609 5604 5599 5595 5589 5585 5580 5575 5571 5566 5561 5555 5550 5544 5538 5532 5526 5519 5513
5793 5792 5791 5790 5788 5787 5786 5784 5783 5781 5780 5778 5776 5775 5773 5771 5769 5767 5765 5763 5761 5759 5756 5754 5752 5750 5748 5745 5743 5741 5738 5736 5734 5731 5728 5726 5723 5720 5717 5714 5711 5708 5705 5702 5699 5696 5693 5690 5687 5684 5681 5676 5670 5667 5664 5660 5656 5652 5648 5644 5640 5636 5632 5628 5624 5620 5616 5611 5607 5603 5598 5594 5589 5583 5579 5574 5569 5564 5558 5553 5547 5541 5535 5528 5522 5515 5509 5502
5793 5791 5790 5789 5788 5786 5785 5784 5782 5780 5779 5777 5775 5773 5771 5769 5767 5765 5763 5761 5759 5757 5755 5753 5750 5748 5746 5744 5741 5739 5737 5734 5732 5729 5727 5724 5721 5718 5715 5712 5709 5706 5703 5699 5696 5693 5690 5686 5683 5680 5678 5673 5668 5664 5661 5657 5653 5649 5645 5640 5636 5632 5628 5624 5620 5615 5611 5607 5602 5597 5593 5588 5582 5576 5571 5566 5560 5554 5549 5543 5538 5531 5525 5519 5512 5505 5499 5493
5792 5791 5790 5789 5787 5786 5784 5783 5781 5779 5777 5775 5774 5772 5770 5768 5766 5764 5762 5760 5758 5756 5754 5751 5749 5747 5745 5742 5740 5737 5735 5732 5729 5727 5724 5722 5719 5716 5713 5710 5707 5703 5700 5697 5693 5690 5686 5683 5679 5676 5674 5670 5665 5661 5657 5652 5649 5645 5640 5635 5631 5627 5623 5619 5615 5610 5606 5602 5596 5591 5586 5581 5575 5569 5564 5558 5552 5546 5540 5534 5529 5522 5516 5510 5503 5496 5488 5481
5792 5790 5789 5788 5786 5785 5783 5781 5780 5778 5776 5774 5773 5771 5769 5767 5765 5763 5761 5759 5757 5755 5753 5751 5748 5746 5744 5741 5739 5736 5733 5731 5728 5725 5722 5719 5717 5713 5710 5707 5704 5700 5697 5693 5690 5686 5683 5679 5675 5672 5669 5666 5661 5657 5653 5648 5644 5640 5635 5631 5627 5623 5619 5614 5609 5604 5599 5595 5590 5584 5579 5574 5568 5562 5557 5550 5544 5538 5532 5526 5519 5513 5506 5499 5492 5484 5477 5469
5791 5790 5788 5787 5785 5784 5782 5780 5779 5777 5776 5774 5772 5770 5769 5767 5765 5763 5761 5759 5757 5755 5753 5750 5748 5745 5743 5740 5738 5735 5732 5730 5727 5724 5720 5717 5714 5711 5707 5704 5701 5697 5694 5690 5687 5683 5679 5676 5672 5667 5665 5661 5656 5652 5649 5644 5640 5636 5631 5626 5622 5618 5614 5609 5604 5599 5592 5586 5581 5576 5570 5565 5560 5555 5549 5544 5536 5529 5523 5516 5508 5502 5495 5488 5480 5473 5465 5458